Content
SEND FEEDBACK

Daily
Averages
Monthly
Summary
United States of America

GREENSBURG, INDIANA


Home > North America > United States > Indiana
Elevation: 289 meters     Latitude: 39 20N     Longitude: 085 28W

WEATHER
 
SELECT A DAY
Number of Records: 170,737;   Date Range: 10/15/98 - 4/17/14
 
SHARE

PRINT THIS DATA

[ ← Previous Day ]
WEATHER ALMANAC - 17 DECEMBER, 2013
[ Next Day → ]
[ °F ]   °C
Weather ElementAverageHighLow
Temperature-2.5 °C-1.1 °C (1:53 am)-5 °C (11:53 pm)
Dewpoint-5.5 °C-3.3 °C (1:53 am)-6.7 °C (11:53 am)
Humidity80.4 %88 % (11:53 pm)72 % (3:21 pm)
Barometer1019 hPa1022.4 hPa (11:53 pm)1016.9 hPa (2:24 am)
Wind Speed17.4 km/h24.1 km/h (1:53 am)
Weather ElementAverage
Visibility12.6 km
Wind DirectionWSW (262.6 °)

Weather ElementTotal
Precipitation---
Heating Degree Days21.4 (Base 18.3)
Averaged from 35 records on 17 December, 2013
WEATHER CONDITIONS BREAKOUT
WIND DIRECTION BREAKOUT
WEATHER BY HOUR - 17 DECEMBER, 2013
[ °F ]   °C
Local TimeTemperatureDewpointHumidityBarometerVisibilityWind DirectionWind SpeedGust SpeedPrecipitationEventsConditions
1:53 AM-1.1 °C-3.3 °C85 %1017.3 hPa6.4 kmNW (310°)24.1 km/hOvercast
2:24 AM-1.7 °C-3.9 °C85 %1016.9 hPa14.5 kmNW (320°)24.1 km/hOvercast
2:53 AM-2.2 °C-4.4 °C85 %1017.9 hPa14.5 kmNNW (330°)18.5 km/hOvercast
3:13 AM-2.2 °C-4.4 °C85 %1016.9 hPa14.5 kmNW (320°)18.5 km/hOvercast
3:53 AM-2.8 °C-5 °C85 %1018.6 hPa14.5 kmNW (320°)13 km/hOvercast
4:24 AM-2.8 °C-5 °C85 %1016.9 hPa12.9 kmWNW (300°)7.4 km/hOvercast
4:53 AM-2.8 °C-5 °C85 %1018.6 hPa14.5 kmWNW (290°)14.8 km/hOvercast
5:53 AM-2.8 °C-5 °C85 %1019.3 hPa11.3 kmWest (270°)20.4 km/hOvercast
6:53 AM-3.3 °C-6.1 °C81 %1019 hPa12.9 kmWNW (300°)18.5 km/hOvercast
7:53 AM-3.3 °C-6.1 °C81 %1018.6 hPa12.9 kmSW (230°)7.4 km/hOvercast
8:53 AM-3.3 °C-6.1 °C81 %1020 hPa12.9 kmWNW (290°)18.5 km/hOvercast
9:53 AM-3.9 °C-6.1 °C85 %1020.7 hPa9.7 kmWest (270°)20.4 km/hOvercast
10:53 AM-3.3 °C-5.6 °C84 %1020.3 hPa6.4 kmWest (260°)14.8 km/hOvercast
11:53 AM-3.9 °C-6.7 °C81 %1019.6 hPa9.7 kmWSW (250°)16.7 km/hHaze
12:53 PM-3.9 °C-6.1 °C85 %1018.3 hPa9.7 kmSW (220°)20.4 km/hOvercast
1:53 PM-2.8 °C-6.1 °C78 %1017.9 hPa12.9 kmSW (230°)20.4 km/hMostly Cloudy
2:27 PM-2.8 °C-6.1 °C78 %1016.9 hPa14.5 kmWSW (240°)20.4 km/hMostly Cloudy
2:34 PM-2.2 °C-6.1 °C75 %1016.9 hPa14.5 kmWSW (250°)14.8 km/hScattered Clouds
2:53 PM-2.2 °C-6.1 °C75 %1017.9 hPa14.5 kmWSW (250°)16.7 km/hMostly Cloudy
3:21 PM-1.7 °C-6.1 °C72 %1017.6 hPa16.1 kmWSW (250°)20.4 km/hMostly Cloudy
3:53 PM-1.7 °C-5.6 °C75 %1018.6 hPa8 kmWSW (250°)22.2 km/h0 mmSnowLight Snow
4:15 PM-1.7 °C-5.6 °C75 %1017.6 hPa4 kmWSW (250°)16.7 km/h0 mmSnowLight Snow
4:22 PM-1.7 °C-5.6 °C75 %1017.6 hPa9.7 kmWSW (250°)20.4 km/h0 mmHaze
4:46 PM-1.7 °C-5.6 °C75 %1017.6 hPa14.5 kmWSW (250°)18.5 km/h0 mmMostly Cloudy
4:53 PM-1.7 °C-5.6 °C75 %1019 hPa12.9 kmWSW (250°)20.4 km/h0 mmMostly Cloudy
5:43 PM-1.7 °C-5.6 °C75 %1018.6 hPa14.5 kmWest (260°)20.4 km/hOvercast
5:53 PM-1.1 °C-5 °C75 %1019.6 hPa16.1 kmWest (260°)18.5 km/hOvercast
6:53 PM-1.1 °C-4.4 °C79 %1020.3 hPa16.1 kmWest (260°)20.4 km/hOvercast
7:06 PM-1.1 °C-4.4 °C79 %1019.6 hPa16.1 kmWSW (250°)14.8 km/hOvercast
7:53 PM-1.7 °C-5 °C78 %1020.7 hPa14.5 kmWSW (240°)14.8 km/hMostly Cloudy
8:01 PM-2.2 °C-5.6 °C78 %1020 hPa14.5 kmWSW (240°)13 km/hPartly Cloudy
8:53 PM-4.4 °C-6.7 °C84 %1021.7 hPa11.3 kmSW (230°)14.8 km/hClear
9:53 PM-3.9 °C-6.1 °C85 %1022 hPa11.3 kmSW (230°)13 km/hMostly Cloudy
10:53 PM-2.2 °C-5 °C81 %1022 hPa12.9 kmWSW (240°)14.8 km/hScattered Clouds
11:53 PM-5 °C-6.7 °C88 %1022.4 hPa11.3 kmSW (230°)13 km/hClear
Hourly data recorded from KGEZ, located 40.15 kilometers away from Greensburg, Indiana







STORIES FROM OUR PARTNERS